• în România
  • Lista ţărilor
  • Pe 7 zile
  • Temperatura apei
  • Hartă satelitară
  • Meteo pe hartă
  • Widget-uri
  • user-avatar
    Intrare

    Meteo pe oră la Igls

    Astăzi, 30 Aprilie, Duminică

    Timp Temperatura Precipitaţii Vânt Presiune Umiditate
    00:00 +1°C° 0 mm 1 m/s 682 mmHg 95%
    01:00 -1°C° 0 mm 2 m/s 682 mmHg 95%
    02:00 -1°C° 0 mm 2 m/s 682 mmHg 95%
    03:00 -1°C° 0 mm 2 m/s 682 mmHg 95%
    04:00 -1°C° 0 mm 2 m/s 682 mmHg 95%
    05:00 +2°C° 0 mm 2 m/s 682 mmHg 93%
    06:00 +3°C° 0 mm 2 m/s 682 mmHg 91%
    07:00 +6°C° 0 mm 1 m/s 682 mmHg 90%
    08:00 +8°C° 0 mm 1 m/s 682 mmHg 87%
    09:00 +10°C° 0 mm 1 m/s 682 mmHg 83%
    10:00 +11°C° 0 mm 1 m/s 682 mmHg 80%
    11:00 +12°C° 0 mm 2 m/s 682 mmHg 77%
    12:00 +13°C° 0 mm 2 m/s 681 mmHg 73%
    13:00 +14°C° 0 mm 2 m/s 681 mmHg 70%
    14:00 +14°C° 0 mm 2 m/s 680 mmHg 70%
    15:00 +14°C° 0 mm 2 m/s 680 mmHg 70%
    16:00 +14°C° 0 mm 2 m/s 680 mmHg 70%
    17:00 +12°C° 0 mm 2 m/s 679 mmHg 77%
    18:00 +9°C° 0 mm 2 m/s 679 mmHg 84%
    19:00 +7°C° 0 mm 2 m/s 678 mmHg 92%
    20:00 +6°C° 0 mm 2 m/s 679 mmHg 93%
    21:00 +6°C° 0 mm 2 m/s 679 mmHg 93%
    22:00 +4°C° 0 mm 3 m/s 679 mmHg 94%
    23:00 +4°C° 0 mm 3 m/s 679 mmHg 94%

    Mâine, 1 Mai, Luni

    Timp Temperatura Precipitaţii Vânt Presiune Umiditate
    00:00 +4°C° 0 mm 3 m/s 679 mmHg 93%
    01:00 +3°C° 0 mm 3 m/s 679 mmHg 93%
    02:00 +3°C° 0 mm 3 m/s 679 mmHg 93%
    03:00 +4°C° 0 mm 2 m/s 678 mmHg 92%
    04:00 +3°C° 0 mm 2 m/s 678 mmHg 92%
    05:00 +4°C° 0 mm 2 m/s 679 mmHg 88%
    06:00 +6°C° 0 mm 2 m/s 679 mmHg 84%
    07:00 +7°C° 0 mm 2 m/s 679 mmHg 81%
    08:00 +8°C° 0 mm 2 m/s 680 mmHg 77%
    09:00 +9°C° 0 mm 2 m/s 680 mmHg 74%
    10:00 +12°C° 0 mm 2 m/s 680 mmHg 71%
    11:00 +10°C° 0,9 mm 2 m/s 680 mmHg 77%
    12:00 +9°C° 0,9 mm 2 m/s 680 mmHg 84%
    13:00 +8°C° 0,9 mm 2 m/s 680 mmHg 91%
    14:00 +7°C° 2 mm 2 m/s 681 mmHg 92%
    15:00 +6°C° 2 mm 2 m/s 681 mmHg 94%
    16:00 +7°C° 2 mm 1 m/s 681 mmHg 96%
    17:00 +6°C° 1,3 mm 1 m/s 681 mmHg 97%
    18:00 +5°C° 1,3 mm 1 m/s 682 mmHg 97%
    19:00 +5°C° 1,3 mm 1 m/s 682 mmHg 98%
    20:00 +4°C° 1,1 mm 1 m/s 682 mmHg 97%
    21:00 +4°C° 1,1 mm 1 m/s 683 mmHg 97%
    22:00 +3°C° 1,1 mm 1 m/s 683 mmHg 97%
    23:00 +3°C° 0,6 mm 1 m/s 683 mmHg 97%

    Poimâine, 2 Mai, Marţi

    Timp Temperatura Precipitaţii Vânt Presiune Umiditate
    00:00 +3°C° 0,6 mm 1 m/s 683 mmHg 97%
    01:00 +3°C° 0,6 mm 1 m/s 683 mmHg 97%
    02:00 +3°C° 0,4 mm 1 m/s 683 mmHg 97%
    03:00 +2°C° 0,4 mm 1 m/s 683 mmHg 97%
    04:00 +2°C° 0,4 mm 1 m/s 683 mmHg 96%
    05:00 +3°C° 0,1 mm 1 m/s 683 mmHg 96%
    06:00 +4°C° 0,1 mm 1 m/s 684 mmHg 96%
    07:00 +4°C° 0,1 mm 1 m/s 684 mmHg 96%
    08:00 +6°C° 0 mm 1 m/s 684 mmHg 95%
    09:00 +7°C° 0 mm 1 m/s 684 mmHg 94%
    10:00 +8°C° 0 mm 1 m/s 683 mmHg 93%
    11:00 +9°C° 0 mm 1 m/s 683 mmHg 92%
    12:00 +10°C° 0 mm 1 m/s 683 mmHg 91%
    13:00 +11°C° 0 mm 1 m/s 683 mmHg 90%
    14:00 +11°C° 0,1 mm 1 m/s 683 mmHg 90%
    15:00 +11°C° 0,1 mm 1 m/s 683 mmHg 89%
    16:00 +11°C° 0,1 mm 1 m/s 683 mmHg 88%
    17:00 +10°C° 0,2 mm 1 m/s 683 mmHg 91%
    18:00 +9°C° 0,2 mm 1 m/s 683 mmHg 93%
    19:00 +7°C° 0,2 mm 1 m/s 683 mmHg 95%
    20:00 +6°C° 0,1 mm 1 m/s 683 mmHg 96%
    21:00 +6°C° 0,1 mm 1 m/s 683 mmHg 96%
    22:00 +5°C° 0,1 mm 1 m/s 683 mmHg 96%
    23:00 +3°C° 0 mm 2 m/s 683 mmHg 96%

    3 Mai, Miercuri

    Timp Temperatura Precipitaţii Vânt Presiune Umiditate
    00:00 +3°C° 0 mm 2 m/s 683 mmHg 95%
    01:00 +3°C° 0 mm 2 m/s 683 mmHg 95%
    02:00 +3°C° 0 mm 2 m/s 683 mmHg 95%
    03:00 +3°C° 0 mm 2 m/s 683 mmHg 95%
    04:00 +3°C° 0 mm 2 m/s 683 mmHg 95%
    05:00 +5°C° 0,1 mm 1 m/s 683 mmHg 94%
    06:00 +6°C° 0,1 mm 1 m/s 683 mmHg 93%
    07:00 +7°C° 0,1 mm 1 m/s 683 mmHg 92%
    08:00 +8°C° 0,5 mm 1 m/s 683 mmHg 91%
    09:00 +8°C° 0,5 mm 1 m/s 683 mmHg 90%
    10:00 +9°C° 0,5 mm 1 m/s 683 mmHg 89%
    11:00 +10°C° 0,5 mm 1 m/s 683 mmHg 89%
    12:00 +10°C° 0,5 mm 1 m/s 683 mmHg 88%
    13:00 +11°C° 0,5 mm 1 m/s 683 mmHg 87%
    14:00 +11°C° 0,5 mm 1 m/s 683 mmHg 87%
    15:00 +11°C° 0,5 mm 1 m/s 683 mmHg 86%
    16:00 +11°C° 0,5 mm 1 m/s 682 mmHg 86%
    17:00 +10°C° 0,7 mm 1 m/s 682 mmHg 89%
    18:00 +9°C° 0,7 mm 1 m/s 682 mmHg 92%
    19:00 +8°C° 0,7 mm 1 m/s 682 mmHg 96%
    20:00 +6°C° 0,6 mm 0 m/s 682 mmHg 96%
    21:00 +5°C° 0,6 mm 0 m/s 682 mmHg 97%
    22:00 +4°C° 0,6 mm 0 m/s 682 mmHg 98%
    23:00 +4°C° 0,3 mm 0 m/s 682 mmHg 97%

    4 Mai, Joi

    Timp Temperatura Precipitaţii Vânt Presiune Umiditate
    00:00 +4°C° 0,3 mm 0 m/s 682 mmHg 97%
    01:00 +4°C° 0,3 mm 0 m/s 681 mmHg 97%
    02:00 +4°C° 0,2 mm 0 m/s 681 mmHg 97%
    03:00 +3°C° 0,2 mm 0 m/s 681 mmHg 97%
    04:00 +3°C° 0,2 mm 0 m/s 681 mmHg 97%
    05:00 +5°C° 0,3 mm 0 m/s 681 mmHg 95%
    06:00 +6°C° 0,3 mm 0 m/s 681 mmHg 94%
    07:00 +7°C° 0,3 mm 0 m/s 681 mmHg 92%
    08:00 +8°C° 0,4 mm 0 m/s 681 mmHg 90%
    09:00 +10°C° 0,4 mm 1 m/s 681 mmHg 88%
    10:00 +11°C° 0,4 mm 1 m/s 681 mmHg 86%
    11:00 +11°C° 0,5 mm 1 m/s 681 mmHg 85%
    12:00 +12°C° 0,5 mm 1 m/s 681 mmHg 84%
    13:00 +12°C° 0,5 mm 1 m/s 680 mmHg 83%
    14:00 +12°C° 0,8 mm 1 m/s 680 mmHg 84%
    15:00 +12°C° 0,8 mm 1 m/s 680 mmHg 84%
    16:00 +12°C° 0,8 mm 1 m/s 680 mmHg 85%
    17:00 +11°C° 0,9 mm 1 m/s 680 mmHg 89%
    18:00 +10°C° 0,9 mm 1 m/s 680 mmHg 92%
    19:00 +9°C° 0,9 mm 1 m/s 680 mmHg 96%
    20:00 +8°C° 0,9 mm 1 m/s 680 mmHg 97%
    21:00 +8°C° 0,9 mm 1 m/s 680 mmHg 97%
    22:00 +7°C° 0,9 mm 1 m/s 681 mmHg 98%
    23:00 +7°C° 0,9 mm 1 m/s 681 mmHg 98%

    5 Mai, Vineri

    Timp Temperatura Precipitaţii Vânt Presiune Umiditate
    00:00 +7°C° 0,9 mm 1 m/s 681 mmHg 98%
    01:00 +7°C° 0,9 mm 1 m/s 682 mmHg 98%
    02:00 +7°C° 0,4 mm 1 m/s 682 mmHg 98%
    03:00 +6°C° 0,4 mm 1 m/s 682 mmHg 98%
    04:00 +6°C° 0,4 mm 1 m/s 682 mmHg 98%
    05:00 +7°C° 0 mm 1 m/s 682 mmHg 96%
    06:00 +8°C° 0 mm 1 m/s 682 mmHg 95%
    07:00 +8°C° 0 mm 1 m/s 683 mmHg 93%
    08:00 +10°C° 0 mm 1 m/s 683 mmHg 89%
    09:00 +11°C° 0 mm 1 m/s 683 mmHg 86%
    10:00 +12°C° 0 mm 1 m/s 683 mmHg 82%
    11:00 +13°C° 0,1 mm 1 m/s 683 mmHg 79%
    12:00 +13°C° 0,1 mm 1 m/s 683 mmHg 76%
    13:00 +14°C° 0,1 mm 1 m/s 683 mmHg 73%
    14:00 +14°C° 0,2 mm 1 m/s 683 mmHg 75%
    15:00 +14°C° 0,2 mm 1 m/s 683 mmHg 77%
    16:00 +14°C° 0,2 mm 1 m/s 683 mmHg 78%
    17:00 +13°C° 0,1 mm 1 m/s 683 mmHg 84%
    18:00 +11°C° 0,1 mm 1 m/s 683 mmHg 90%
    19:00 +10°C° 0,1 mm 1 m/s 683 mmHg 95%
    20:00 +8°C° 0 mm 1 m/s 683 mmHg 96%
    21:00 +7°C° 0 mm 1 m/s 683 mmHg 97%
    22:00 +6°C° 0 mm 1 m/s 683 mmHg 97%
    23:00 +5°C° 0 mm 1 m/s 683 mmHg 96%
    Arată mai mult